Location: Unspecified
(0.0000°N, 0.0000°E)
Time: 04:12:06
(UTC+00:00)

Tiangong 2 - Visible Passes

Search period start: 24 October 2017 00:00
Search period end: 03 November 2017 00:00
Orbit: 388 x 391 km, 42.8° (Epoch: 23 October)

Date Brightness Start Highest point End Pass type
(mag) Time Alt. Az. Time Alt. Az. Time Alt. Az.
24 Oct 4.1 19:14:28 10° NW 19:15:00 10° NW 19:15:31 10° NW visible
25 Oct 3.5 05:06:51 10° N 05:09:17 20° NE 05:11:44 10° E visible
25 Oct 3.2 18:14:26 10° WSW 18:17:06 25° NW 18:19:46 10° NNE visible
27 Oct 1.4 04:48:03 18° NW 04:50:13 65° NE 04:53:23 10° SE visible
28 Oct 3.8 03:53:29 19° ENE 03:53:29 19° ENE 03:54:55 10° E visible
29 Oct 2.0 04:31:12 34° SW 04:31:12 34° SW 04:34:02 10° SSE visible
